Zurück zum Katalog

ATLAS 41E DEB

AktivLEO
NORAD 15615·DEBRIS·🇺🇸 United States

Gestartet Mar 13, 1985 von Vandenberg Space Force Base

Loading…

Nächste Überflüge (nächste 24 Stunden)

TLE

AktuellSource: Space-Track

Epoche: Sep 14, 2026, 12:42 UTC

1 15615U 85021E   26257.52944619  .00000493  00000-0  15416-3 0  9992
2 15615 107.8296 101.6958 0039808 151.2283 231.9328 14.52720132181132

Verfolge ATLAS 41E DEB in Echtzeit mit AllMySat

Download on the App Store